This is the latest recevied weather packets stored in our database for station/object N1UNH. If no packets are shown the sender has not sent any weather packets the latest 10 day(s).
| Time | Temp. | Humidity | Pressure | Rain* | Wind** | Luminosity | Snow |
|---|---|---|---|---|---|---|---|
| 1777301798 | 18.33° C | 35% | 1030.6 hPa | 0 mm | - | 658 W/m² | - |
| 1777301495 | 17.78° C | 37% | 1030.6 hPa | 0 mm | - | 362 W/m² | - |
| 1777301192 | 17.78° C | 37% | 1030.9 hPa | 0 mm | - | 167 W/m² | - |
| 1777300888 | 17.22° C | 39% | 1030.8 hPa | 0 mm | - | 51 W/m² | - |
| 1777300586 | 16.67° C | 39% | 1030.9 hPa | 0 mm | - | 52 W/m² | - |
| 1777300284 | 16.67° C | 39% | 1030.7 hPa | 0 mm | - | 50 W/m² | - |
| 1777299979 | 16.67° C | 39% | 1030.8 hPa | 0 mm | - | 49 W/m² | - |
| 1777299676 | 16.11° C | 41% | 1030.8 hPa | 0 mm | - | 50 W/m² | - |
| 1777299374 | 15.56° C | 40% | 1030.8 hPa | 0 mm | - | 47 W/m² | - |
| 1777299072 | 15.56° C | 39% | 1030.8 hPa | 0 mm | - | 46 W/m² | - |
| 1777298769 | 15.56° C | 41% | 1030.8 hPa | 0 mm | - | 46 W/m² | - |
| 1777298465 | 15° C | 42% | 1030.8 hPa | 0 mm | - | 54 W/m² | - |
| 1777298162 | 15° C | 43% | 1030.7 hPa | 0 mm | - | 54 W/m² | - |
| 1777297856 | 14.44° C | 44% | 1030.8 hPa | 0 mm | - | 55 W/m² | - |
| 1777297555 | 13.89° C | 44% | 1030.8 hPa | 0 mm | - | 55 W/m² | - |
| 1777297251 | 13.89° C | 47% | 1030.7 hPa | 0 mm | - | 78 W/m² | - |
| 1777296948 | 13.33° C | 47% | 1030.8 hPa | 0 mm | - | 41 W/m² | - |
| 1777296645 | 13.33° C | 46% | 1030.6 hPa | 0 mm | - | 45 W/m² | - |
| 1777296315 | 12.78° C | 46% | 1030.7 hPa | 0 mm | - | 86 W/m² | - |
| 1777296010 | 12.78° C | 50% | 1030.8 hPa | 0 mm | - | 44 W/m² | - |
| 1777295708 | 12.22° C | 51% | 1030.9 hPa | 0 mm | - | 65 W/m² | - |
| 1777295406 | 11.67° C | 52% | 1030.8 hPa | 0 mm | - | 38 W/m² | - |
| 1777295103 | 11.11° C | 56% | 1030.7 hPa | 0 mm | - | 60 W/m² | - |
| 1777294800 | 10.56° C | 59% | 1030.6 hPa | 0 mm | - | 50 W/m² | - |
| 1777294495 | 10.56° C | 60% | 1030.6 hPa | 0 mm | - | 36 W/m² | - |
* Rain latest hour (hover to see other rain measurements)
** Current wind speed in m/s (hover to see current wind gust speed)